| time (UTC) | temp F | wind direction | speed knots | gust knots | rain 1hr in | rain 24hr in | rain mn in | humidity % | barometer mb |
| 20260906010140 | 0 | 0.0 | 0.0 | 0.00 | 0.00 | 0.00 | 10 | 1012.4 | |
| 20260906005137 | 0 | 0.0 | 0.0 | 0.00 | 0.00 | 0.00 | 10 | 1012.4 | |
| 20260906004133 | 0 | 0.0 | 0.0 | 0.00 | 0.00 | 0.00 | 10 | 1012.5 | |
| 20260905233145 | 0 | 0.0 | 0.0 | 0.00 | 0.00 | 0.00 | 10 | 1012.2 | |
| 20260905232142 | 0 | 0.0 | 0.0 | 0.00 | 0.00 | 0.00 | 10 | 1012.2 | |
| 20260905231139 | 0 | 0.0 | 0.0 | 0.00 | 0.00 | 0.00 | 10 | 1012.2 | |
| 20260905230135 | 0 | 0.0 | 0.0 | 0.00 | 0.00 | 0.00 | 10 | 1012.2 | |
| 20260905225133 | 0 | 0.0 | 0.0 | 0.00 | 0.00 | 0.00 | 10 | 1012.2 | |
| 20260905224130 | 0 | 0.0 | 0.0 | 0.00 | 0.00 | 0.00 | 10 | 1012.2 | |
| 20260905223127 | 0 | 0.0 | 0.0 | 0.00 | 0.00 | 0.00 | 10 | 1012.1 | |
| 20260905222124 | 0 | 0.0 | 0.0 | 0.00 | 0.00 | 0.00 | 10 | 1012.1 | |
| 20260905221120 | 0 | 0.0 | 0.0 | 0.00 | 0.00 | 0.00 | 10 | 1012.1 | |
| 20260905220117 | 0 | 0.0 | 0.0 | 0.00 | 0.00 | 0.00 | 10 | 1012.2 | |
| 20260905215114 | 0 | 0.0 | 0.0 | 0.00 | 0.00 | 0.00 | 10 | 1012.2 | |
| 20260905214111 | 0 | 0.0 | 0.0 | 0.00 | 0.00 | 0.00 | 10 | 1012.3 | |
| 20260905213108 | 0 | 0.0 | 0.0 | 0.00 | 0.00 | 0.00 | 10 | 1012.4 | |
| 20260905212105 | 0 | 0.0 | 0.0 | 0.00 | 0.00 | 0.00 | 10 | 1012.3 | |
| 20260905211102 | 0 | 0.0 | 0.0 | 0.00 | 0.00 | 0.00 | 10 | 1012.2 | |
| 20260905210057 | 0 | 0.0 | 0.0 | 0.00 | 0.00 | 0.00 | 10 | 1012.3 | |
| 20260905205054 | 0 | 0.0 | 0.0 | 0.00 | 0.00 | 0.00 | 10 | 1012.2 | |
| 20260905204051 | 0 | 0.0 | 0.0 | 0.00 | 0.00 | 0.00 | 10 | 1012.2 | |
| 20260905203048 | 0 | 0.0 | 0.0 | 0.00 | 0.00 | 0.00 | 10 | 1012.2 | |
| 20260905202045 | 0 | 0.0 | 0.0 | 0.00 | 0.00 | 0.00 | 10 | 1012.3 | |
| 20260905201042 | 0 | 0.0 | 0.0 | 0.00 | 0.00 | 0.00 | 10 | 1012.2 | |
| 20260905200039 | 0 | 0.0 | 0.0 | 0.00 | 0.00 | 0.00 | 10 | 1012.3 | |
| 20260905195036 | 0 | 0.0 | 0.0 | 0.00 | 0.00 | 0.00 | 10 | 1012.4 | |
| 20260905194033 | 0 | 0.0 | 0.0 | 0.00 | 0.00 | 0.00 | 10 | 1012.4 | |
| 20260905193030 | 0 | 0.0 | 0.0 | 0.00 | 0.00 | 0.00 | 10 | 1012.4 | |
| 20260905192027 | 0 | 0.0 | 0.0 | 0.00 | 0.00 | 0.00 | 10 | 1012.5 | |
| 20260905191024 | 0 | 0.0 | 0.0 | 0.00 | 0.00 | 0.00 | 10 | 1012.5 | |
| 20260905190021 | 0 | 0.0 | 0.0 | 0.00 | 0.00 | 0.00 | 10 | 1012.6 | |
| 20260905185018 | 0 | 0.0 | 0.0 | 0.00 | 0.00 | 0.00 | 10 | 1012.7 | |
| 20260905184015 | 0 | 0.0 | 0.0 | 0.00 | 0.00 | 0.00 | 10 | 1012.6 | |
| 20260905183012 | 0 | 0.0 | 0.0 | 0.00 | 0.00 | 0.00 | 10 | 1012.6 | |
| 20260905182009 | 0 | 0.0 | 0.0 | 0.00 | 0.00 | 0.00 | 10 | 1012.6 | |
| 20260905181006 | 0 | 0.0 | 0.0 | 0.00 | 0.00 | 0.00 | 10 | 1012.6 | |
| 20260905180002 | 0 | 0.0 | 0.0 | 0.00 | 0.00 | 0.00 | 10 | 1012.8 | |
| 20260905174957 | 0 | 0.0 | 0.0 | 0.00 | 0.00 | 0.00 | 10 | 1012.9 | |
| 20260905173954 | 0 | 0.0 | 0.0 | 0.00 | 0.00 | 0.00 | 10 | 1013.2 | |
| 20260905172951 | 0 | 0.0 | 0.0 | 0.00 | 0.00 | 0.00 | 10 | 1013.4 | |
| 20260905171948 | 0 | 0.0 | 0.0 | 0.00 | 0.00 | 0.00 | 10 | 1013.4 | |
| 20260905170945 | 0 | 0.0 | 0.0 | 0.00 | 0.00 | 0.00 | 10 | 1013.3 | |
| 20260905165942 | 0 | 0.0 | 0.0 | 0.00 | 0.00 | 0.00 | 10 | 1013.4 | |
| 20260905164939 | 0 | 0.0 | 0.0 | 0.00 | 0.00 | 0.00 | 10 | 1013.4 | |
| 20260905164058 | 0 | 0.0 | 0.0 | 0.00 | 0.00 | 0.00 | 80 | 1012.1 | |
| 20260905163055 | 0 | 0.0 | 0.0 | 0.00 | 0.00 | 0.00 | 79 | 1011.6 | |
| 20260905162051 | 0 | 0.0 | 0.0 | 0.00 | 0.00 | 0.00 | 75 | 1011.7 | |
| 20260905161048 | 0 | 0.0 | 0.0 | 0.00 | 0.00 | 0.00 | 68 | 1011.9 | |
| 20260905160045 | 0 | 0.0 | 0.0 | 0.00 | 0.00 | 0.00 | 60 | 1011.3 | |
| 20260905155042 | 0 | 0.0 | 0.0 | 0.00 | 0.00 | 0.00 | 56 | 1011.3 | |
| 20260905154038 | 0 | 0.0 | 0.0 | 0.00 | 0.00 | 0.00 | 52 | 1011.2 | |
| 20260905153035 | 0 | 0.0 | 0.0 | 0.00 | 0.00 | 0.00 | 61 | 1010.9 | |
| 20260905152032 | 0 | 0.0 | 0.0 | 0.00 | 0.00 | 0.00 | 62 | 1011.0 | |
| 20260905151029 | 0 | 0.0 | 0.0 | 0.00 | 0.00 | 0.00 | 57 | 1011.0 | |
| 20260905150026 | 0 | 0.0 | 0.0 | 0.00 | 0.00 | 0.00 | 55 | 1010.9 | |
| 20260905145023 | 0 | 0.0 | 0.0 | 0.00 | 0.00 | 0.00 | 51 | 1011.0 | |
| 20260905144020 | 0 | 0.0 | 0.0 | 0.00 | 0.00 | 0.00 | 52 | 1010.9 | |
| 20260905143017 | 0 | 0.0 | 0.0 | 0.00 | 0.00 | 0.00 | 54 | 1010.8 | |
| 20260905142014 | 0 | 0.0 | 0.0 | 0.00 | 0.00 | 0.00 | 53 | 1010.7 | |
| 20260905141011 | 0 | 0.0 | 0.0 | 0.00 | 0.00 | 0.00 | 52 | 1010.7 | |
| 20260905140008 | 0 | 0.0 | 0.0 | 0.00 | 0.00 | 0.00 | 49 | 1010.7 | |
| 20260905135005 | 0 | 0.0 | 0.0 | 0.00 | 0.00 | 0.00 | 50 | 1011.0 | |
| 20260905134002 | 0 | 0.0 | 0.0 | 0.00 | 0.00 | 0.00 | 53 | 1010.6 | |
| 20260905132957 | 0 | 0.0 | 0.0 | 0.00 | 0.00 | 0.00 | 53 | 1010.8 | |
| 20260905131954 | 0 | 0.0 | 0.0 | 0.00 | 0.00 | 0.00 | 53 | 1010.8 | |
| 20260905130951 | 0 | 0.0 | 0.0 | 0.00 | 0.00 | 0.00 | 57 | 1010.6 | |
| 20260905125948 | 0 | 0.0 | 0.0 | 0.00 | 0.00 | 0.00 | 62 | 1010.8 | |
| 20260905124945 | 0 | 0.0 | 0.0 | 0.00 | 0.00 | 0.00 | 62 | 1010.8 | |
| 20260905123942 | 0 | 0.0 | 0.0 | 0.00 | 0.00 | 0.00 | 62 | 1010.5 | |
| 20260905122938 | 0 | 0.0 | 0.0 | 0.00 | 0.00 | 0.00 | 60 | 1011.0 | |
| 20260905121935 | 0 | 0.0 | 0.0 | 0.00 | 0.00 | 0.00 | 60 | 1010.4 | |
| 20260905120932 | 0 | 0.0 | 0.0 | 0.00 | 0.00 | 0.00 | 61 | 1010.8 | |
| 20260905115929 | 0 | 0.0 | 0.0 | 0.00 | 0.00 | 0.00 | 61 | 1010.6 | |
| 20260905114926 | 0 | 0.0 | 0.0 | 0.00 | 0.00 | 0.00 | 57 | 1010.7 | |
| 20260905113923 | 0 | 0.0 | 0.0 | 0.00 | 0.00 | 0.00 | 56 | 1010.0 | |
| 20260905112920 | 0 | 0.0 | 0.0 | 0.00 | 0.00 | 0.00 | 62 | 1010.1 | |
| 20260905111917 | 0 | 0.0 | 0.0 | 0.00 | 0.00 | 0.00 | 70 | 1010.1 | |
| 20260905110914 | 0 | 0.0 | 0.0 | 0.00 | 0.00 | 0.00 | 73 | 1010.5 | |
| 20260905105911 | 0 | 0.0 | 0.0 | 0.00 | 0.00 | 0.00 | 72 | 1010.0 | |
| 20260905104908 | 0 | 0.0 | 0.0 | 0.00 | 0.00 | 0.00 | 80 | 1010.3 | |
| 20260905103905 | 0 | 0.0 | 0.0 | 0.00 | 0.00 | 0.00 | 79 | 1010.2 | |
| 20260905102902 | 0 | 0.0 | 0.0 | 0.00 | 0.00 | 0.00 | 75 | 1010.1 | |
| 20260905101857 | 0 | 0.0 | 0.0 | 0.00 | 0.00 | 0.00 | 77 | 1010.3 | |
| 20260905100854 | 0 | 0.0 | 0.0 | 0.00 | 0.00 | 0.00 | 81 | 1010.0 |